When you browse on this site, cookies collect data to enhance your experience and personalize the content and advertising you see.
Visit our Privacy Policy to learn more. By continuing to use the site, you agree to this use of cookies and data.
  • în România
  • Lista ţărilor
  • Pe 7 zile
  • Temperatura apei
  • Hartă satelitară
  • Meteo pe hartă
  • Widget-uri
  • user-avatar
    Intrare

    Meteo pe oră la Bakhtaran

    Astăzi, 24 Martie, Duminică

    Timp Temperatura Precipitaţii Vânt Presiune Umiditate
    00:00 +8°C° 0 mm 1 m/s 633 mmHg 46%
    01:00 +8°C° 0 mm 1 m/s 633 mmHg 48%
    02:00 +7°C° 0 mm 1 m/s 633 mmHg 49%
    03:00 +7°C° 0 mm 2 m/s 632 mmHg 55%
    04:00 +6°C° 0.1 mm 2 m/s 632 mmHg 57%
    05:00 +6°C° 0.1 mm 2 m/s 632 mmHg 60%
    06:00 +6°C° 0.1 mm 2 m/s 632 mmHg 62%
    07:00 +6°C° 1.2 mm 2 m/s 632 mmHg 67%
    08:00 +5°C° 1.2 mm 3 m/s 631 mmHg 72%
    09:00 +5°C° 1.2 mm 3 m/s 631 mmHg 76%
    10:00 +7°C° 0.5 mm 4 m/s 631 mmHg 71%
    11:00 +9°C° 0.5 mm 5 m/s 632 mmHg 65%
    12:00 +10°C° 0.5 mm 6 m/s 632 mmHg 59%
    13:00 +11°C° 0.5 mm 7 m/s 631 mmHg 58%
    14:00 +11°C° 0.5 mm 7 m/s 631 mmHg 57%
    15:00 +12°C° 0.5 mm 8 m/s 630 mmHg 55%
    16:00 +11°C° 0.6 mm 6 m/s 630 mmHg 62%
    17:00 +10°C° 0.6 mm 5 m/s 629 mmHg 69%
    18:00 +10°C° 0.6 mm 3 m/s 629 mmHg 75%
    19:00 +9°C° 0.7 mm 3 m/s 629 mmHg 79%
    20:00 +9°C° 0.7 mm 3 m/s 629 mmHg 82%
    21:00 +7°C° 0.7 mm 4 m/s 629 mmHg 86%
    22:00 +7°C° 2.6 mm 4 m/s 629 mmHg 87%
    23:00 +7°C° 2.6 mm 3 m/s 628 mmHg 89%

    Mâine, 25 Martie, Luni

    Timp Temperatura Precipitaţii Vânt Presiune Umiditate
    00:00 +7°C° 2.6 mm 3 m/s 628 mmHg 91%
    01:00 +6°C° 2.1 mm 4 m/s 627 mmHg 90%
    02:00 +6°C° 2.1 mm 4 m/s 627 mmHg 90%
    03:00 +6°C° 2.1 mm 4 m/s 627 mmHg 89%
    04:00 +6°C° 2.7 mm 4 m/s 626 mmHg 90%
    05:00 +6°C° 2.7 mm 4 m/s 626 mmHg 90%
    06:00 +7°C° 2.7 mm 4 m/s 625 mmHg 90%
    07:00 +7°C° 1.4 mm 5 m/s 626 mmHg 89%
    08:00 +8°C° 1.4 mm 6 m/s 626 mmHg 87%
    09:00 +9°C° 1.4 mm 7 m/s 626 mmHg 85%
    10:00 +9°C° 1.7 mm 8 m/s 627 mmHg 80%
    11:00 +10°C° 1.7 mm 9 m/s 627 mmHg 74%
    12:00 +11°C° 1.7 mm 10 m/s 628 mmHg 69%
    13:00 +11°C° 0.6 mm 10 m/s 628 mmHg 62%
    14:00 +12°C° 0.6 mm 10 m/s 628 mmHg 56%
    15:00 +12°C° 0.6 mm 10 m/s 628 mmHg 49%
    16:00 +11°C° 0.1 mm 8 m/s 629 mmHg 55%
    17:00 +9°C° 0.1 mm 6 m/s 629 mmHg 60%
    18:00 +8°C° 0.1 mm 4 m/s 629 mmHg 65%
    19:00 +8°C° 0 mm 3 m/s 629 mmHg 69%
    20:00 +7°C° 0 mm 3 m/s 630 mmHg 72%
    21:00 +6°C° 0 mm 2 m/s 630 mmHg 75%
    22:00 +6°C° 0 mm 2 m/s 630 mmHg 75%
    23:00 +6°C° 0 mm 2 m/s 630 mmHg 75%

    Poimâine, 26 Martie, Marţi

    Timp Temperatura Precipitaţii Vânt Presiune Umiditate
    00:00 +5°C° 0 mm 2 m/s 630 mmHg 76%
    01:00 +5°C° 0 mm 2 m/s 630 mmHg 76%
    02:00 +5°C° 0 mm 2 m/s 630 mmHg 76%
    03:00 +5°C° 0 mm 2 m/s 630 mmHg 76%
    04:00 +5°C° 0 mm 2 m/s 630 mmHg 77%
    05:00 +5°C° 0 mm 2 m/s 630 mmHg 78%
    06:00 +4°C° 0 mm 2 m/s 630 mmHg 79%
    07:00 +6°C° 0.1 mm 2 m/s 630 mmHg 75%
    08:00 +7°C° 0.1 mm 2 m/s 630 mmHg 70%
    09:00 +8°C° 0.1 mm 2 m/s 631 mmHg 66%
    10:00 +8°C° 1 mm 2 m/s 631 mmHg 66%
    11:00 +8°C° 1 mm 2 m/s 630 mmHg 66%
    12:00 +8°C° 1 mm 2 m/s 630 mmHg 66%
    13:00 +8°C° 1 mm 2 m/s 630 mmHg 68%
    14:00 +7°C° 1 mm 2 m/s 630 mmHg 70%
    15:00 +7°C° 1 mm 2 m/s 630 mmHg 72%
    16:00 +7°C° 0.4 mm 2 m/s 630 mmHg 75%
    17:00 +8°C° 0.4 mm 1 m/s 630 mmHg 79%
    18:00 +7°C° 0.4 mm 1 m/s 630 mmHg 82%
    19:00 +7°C° 0.9 mm 1 m/s 630 mmHg 85%
    20:00 +7°C° 0.9 mm 1 m/s 631 mmHg 87%
    21:00 +5°C° 0.9 mm 2 m/s 631 mmHg 90%
    22:00 +5°C° 1.1 mm 2 m/s 632 mmHg 90%
    23:00 +5°C° 1.1 mm 2 m/s 632 mmHg 91%

    27 Martie, Miercuri

    Timp Temperatura Precipitaţii Vânt Presiune Umiditate
    00:00 +5°C° 1.1 mm 2 m/s 632 mmHg 91%
    01:00 +5°C° 0.7 mm 2 m/s 632 mmHg 90%
    02:00 +4°C° 0.7 mm 3 m/s 633 mmHg 88%
    03:00 +4°C° 0.7 mm 3 m/s 633 mmHg 87%
    04:00 +3°C° 0.4 mm 3 m/s 634 mmHg 88%
    05:00 +4°C° 0.4 mm 2 m/s 634 mmHg 88%
    06:00 +4°C° 0.4 mm 2 m/s 635 mmHg 89%
    07:00 +5°C° 0.2 mm 2 m/s 635 mmHg 86%
    08:00 +5°C° 0.2 mm 2 m/s 636 mmHg 82%
    09:00 +5°C° 0.2 mm 3 m/s 637 mmHg 79%
    10:00 +5°C° 0.1 mm 3 m/s 637 mmHg 76%
    11:00 +7°C° 0.1 mm 3 m/s 637 mmHg 73%
    12:00 +8°C° 0.1 mm 3 m/s 637 mmHg 70%
    13:00 +8°C° 0.1 mm 3 m/s 637 mmHg 68%
    14:00 +9°C° 0.1 mm 3 m/s 637 mmHg 66%
    15:00 +9°C° 0.1 mm 3 m/s 637 mmHg 64%
    16:00 +9°C° 0.2 mm 2 m/s 637 mmHg 67%
    17:00 +8°C° 0.2 mm 2 m/s 637 mmHg 70%
    18:00 +8°C° 0.2 mm 2 m/s 637 mmHg 73%
    19:00 +7°C° 0.2 mm 2 m/s 637 mmHg 76%
    20:00 +8°C° 0.2 mm 1 m/s 637 mmHg 79%
    21:00 +7°C° 0.2 mm 1 m/s 637 mmHg 82%
    22:00 +7°C° 0.1 mm 1 m/s 637 mmHg 83%
    23:00 +6°C° 0.1 mm 1 m/s 637 mmHg 83%

    28 Martie, Joi

    Timp Temperatura Precipitaţii Vânt Presiune Umiditate
    00:00 +6°C° 0.1 mm 1 m/s 636 mmHg 84%
    01:00 +6°C° 0.1 mm 1 m/s 636 mmHg 85%
    02:00 +5°C° 0.1 mm 1 m/s 636 mmHg 85%
    03:00 +5°C° 0.1 mm 1 m/s 635 mmHg 86%
    04:00 +5°C° 0.1 mm 1 m/s 635 mmHg 87%
    05:00 +4°C° 0.1 mm 1 m/s 635 mmHg 87%
    06:00 +4°C° 0.1 mm 1 m/s 636 mmHg 88%
    07:00 +5°C° 0.1 mm 1 m/s 636 mmHg 80%
    08:00 +6°C° 0.1 mm 2 m/s 637 mmHg 73%
    09:00 +7°C° 0.1 mm 2 m/s 637 mmHg 66%
    10:00 +8°C° 0.4 mm 2 m/s 637 mmHg 64%
    11:00 +8°C° 0.4 mm 2 m/s 637 mmHg 63%
    12:00 +8°C° 0.4 mm 3 m/s 637 mmHg 61%
    13:00 +8°C° 0.5 mm 4 m/s 637 mmHg 61%
    14:00 +8°C° 0.5 mm 4 m/s 636 mmHg 60%
    15:00 +8°C° 0.5 mm 5 m/s 636 mmHg 60%
    16:00 +7°C° 0.3 mm 4 m/s 636 mmHg 62%
    17:00 +8°C° 0.3 mm 3 m/s 636 mmHg 64%
    18:00 +8°C° 0.3 mm 1 m/s 636 mmHg 67%
    19:00 +7°C° 0 mm 2 m/s 636 mmHg 69%
    20:00 +6°C° 0 mm 2 m/s 636 mmHg 72%
    21:00 +5°C° 0 mm 2 m/s 636 mmHg 74%
    22:00 +5°C° 0 mm 2 m/s 636 mmHg 76%
    23:00 +5°C° 0 mm 1 m/s 636 mmHg 78%

    29 Martie, Vineri

    Timp Temperatura Precipitaţii Vânt Presiune Umiditate
    00:00 +5°C° 0 mm 1 m/s 636 mmHg 80%
    01:00 +5°C° 0 mm 1 m/s 635 mmHg 80%
    02:00 +5°C° 0 mm 1 m/s 635 mmHg 81%
    03:00 +5°C° 0 mm 1 m/s 635 mmHg 82%
    04:00 +5°C° 0 mm 1 m/s 635 mmHg 82%
    05:00 +5°C° 0 mm 1 m/s 636 mmHg 82%
    06:00 +5°C° 0 mm 1 m/s 636 mmHg 82%
    07:00 +6°C° 0 mm 1 m/s 636 mmHg 75%
    08:00 +7°C° 0 mm 2 m/s 637 mmHg 68%
    09:00 +9°C° 0 mm 2 m/s 638 mmHg 62%
    10:00 +10°C° 0 mm 2 m/s 638 mmHg 57%
    11:00 +11°C° 0 mm 3 m/s 638 mmHg 52%
    12:00 +12°C° 0 mm 3 m/s 638 mmHg 47%
    13:00 +12°C° 0.1 mm 3 m/s 637 mmHg 46%
    14:00 +12°C° 0.1 mm 3 m/s 637 mmHg 45%
    15:00 +12°C° 0.1 mm 3 m/s 637 mmHg 44%
    16:00 +13°C° 0.1 mm 2 m/s 636 mmHg 48%
    17:00 +12°C° 0.1 mm 2 m/s 636 mmHg 52%
    18:00 +11°C° 0.1 mm 1 m/s 636 mmHg 56%
    19:00 +10°C° 0.1 mm 1 m/s 636 mmHg 59%
    20:00 +10°C° 0.1 mm 1 m/s 636 mmHg 62%
    21:00 +8°C° 0.1 mm 0 m/s 636 mmHg 65%
    22:00 +9°C° 0 mm 1 m/s 636 mmHg 66%
    23:00 +9°C° 0 mm 1 m/s 635 mmHg 67%
    Arată mai mult